Aérodrome :
LOGIN :

S'inscrire | Disclaimer

   EN    FR    IT 

 










Légende :    VFR   VFR Marginal   IFR   IFR Intensif   IFR Très Intensif
Visi : 
Plafond : 
>= 8 km
>= 3000ft
5 à 8 km
1000 à 3000 ft
1500m à 5 km
500 à 1000 ft
800 à 1500m
200 à 500 ft
< 800m
< 200 ft
Symboles :   Orages  Brouillard  Fortes neiges  Fortes précipitations  Vent > 20 kt
SIGMETs :   Divers  Orages  Givrage  Turbulence  Onde Orograph.  Cendres Volcan.







- Altitude de l'aérodrome : 106 ft
- Code IATA : NRN


EDLV - Weeze

DERNIER METAR :
  • 270720Z 27007KT 9999 FEW022 15/10 Q1010

METARs EXPIRÉS :
  • 270650Z 28008KT CAVOK 14/10 Q1010
  • 270620Z 28008KT 250V310 CAVOK 14/11 Q1010
  • 270550Z 27007KT CAVOK 14/12 Q1010
  • 270520Z 25005KT CAVOK 13/12 Q1009
  • 270450Z 22005KT CAVOK 13/12 Q1009
  • 270420Z 23005KT CAVOK 12/12 Q1009

TAF TAF EDLV
Valide du 27 à 06h jusqu'au 28 à 06h UTC


270500Z 2706/2806 22005KT 9999 SCT035
BECMG 2706/2709 27010KT
BECMG 2717/2720 24003KT
Pas de NOTAMs connus pour ce terrain.



MET'MAP, la Météo Aéronautique d'un coup d'oeil ! - Copyright ORBIFLY Décembre 2007 - Disclaimer

ORBIFLY MET'MAP TEAM :

Programmation & Développement : Alexandra Zaïnal
Conception & Développement : Baudouin d'Aumeries
Co-Programmation & Développement : Marc-Olivier Méhu
Soutien technique & logistique : Manuel Goepfert

Contact : metmap@orbifly.com




SOURCES & CREDITS :

   NOAA